Погода в Пензе

Погода в Пензе : погода сейчас, прогноз погоды и архив. Всё, что Вы хотите узнать о погоде в Пензе!

Хотите узнать прогноз погоды в Пензе? Тогда Вам сюда: Погода в Пензе

Поиск расширенной информации на нашем сайте:

Другие новости

Новости СМИ2

Главная страница сайта

Новости сайта

03.07.2017

Напоминаем, что на нашем специализированном сайте Метеоцентр.Азия вы можете получить высокодетализированные автоматические прогнозы погоды по пунктам России, СНГ и мира в авиационном формате (включающие направление и скорость ветра, видимость, явления погоды, количество и форму облачности, нижнюю и верхнюю границу облачности).


Погода в Пензе - сегодня

Время (UTC), дата Ветер
(°,м/с) 
Видим.   Явления Облачность Т
(°С)
Тd
(°С)
f(%) Тe
(°С)
Pmin
(гПа)
dP
(гПа)
Po
(мм)
O2
(г/м3)
Тmin Tmax R s Состояние
почвы
21 16.04.18 290 (З) н/о    н/о 
+3.8 -0.4 74 +5  1018.7  -0.2  748  297           
00 17.04.18 270 (З) 10 км    ясно 
+2.9 -0.7 77 +4  1018.4  -0.3  748  298           
03 17.04.18 290 (З) 4000 м  дымка  10/0 средняя 
[As trans]
+3.7 +0.2 78 +5  1018.2  -0.2  748  297  +2.6        влажная 
06 17.04.18 170 (Ю) 10 км    8/0 верхняя 
[Cc]
+10.4 +2.5 58 +12  1018  0.4  748  290           
09 17.04.18 340 (С) 10 км    8/0 средняя 
[Ac As]
+18.3 +1.4 32 +20  1016.9  -0.5  748  282           
12 17.04.18 310 (СЗ) 10 км    8/4 600 м средняя 
[Sc|As op]
+19 +3.6 36 +20  1016.4  -0.5  747  281           
18 17.04.18 250 (З) 10 км    5/0 средняя 
[Ac trans]
+10.7 +6.8 77 +11  1017.3  0.4  747  289           
21 17.04.18 090 (В) 10 км    3/0 средняя 
[As op]
+7.1 +6.2 94 +8  1017.4  -0.2  747  292           
00 18.04.18 160 (Ю) 10 км    5/0 средняя 
[Ac As]
+5.1 +3.8 91 +6  1017  -0.5  747  295           
03 18.04.18 110 (В) 4000 м  дымка  10/0 средняя 
[Ac As]
+5 +4.1 94 +6  1015.8  -1.1  746  295  +4.5        влажная 
06 18.04.18 тихо ()   4000 м  слаб. дождь  10/0 средняя 
[Ac As]
+8.4 +7.5 94 +8  1015.4  -0.2  746  290           
09 18.04.18 140 (ЮВ) 4000 м  слаб. дождь  10/0 средняя 
[Ac As]
+10.5 +7.7 83 +10  1013.3  -1.8  744  288           
15 18.04.18 170 (Ю) 4000 м  слаб. дождь  10/0 средняя 
[Ac As]
+12.3 +9.6 84 +14  1009.5  -1.9  742  284    +13.4  0.4     
03 19.04.18 240 (ЮЗ) 4000 м  морось  10/10 180 м 
[St]
+6.4 +5.8 96 +6  1002  -1.5  736  289  +6.4      влажная 
09 19.04.18 240 (ЮЗ) 10 км    10/10 630 м 
[Frnb]
+9.5 +4.7 72 +9  1000.3  -0.6  735  285           
15 19.04.18 160 (Ю) 4000 м  слаб. дождь{ливн. осадки}  10/0 средняя 
[Ac As]
+8.7 +6.3 85 +10  1000.1  0.1  735  286    +10.9     
03 20.04.18 060 (СВ) 4000 м  дымка  10/0 средняя 
[Ac As]
+6.4 +5.8 96 +6  1000.8  0.9  735  288  +6.3      влажная 
06 20.04.18 050 (СВ) 10 км    10/10 210 м 
[Frnb]
+7.2 +6.4 95 +7  1002.5  1.8  736  288           
09 20.04.18 050 (СВ) 10 км    10/10 270 м 
[Frnb]
+9.7 +7 83 +9  1004.3  1.9  738  286           
18 20.04.18 060 (СВ) 10 км    ясно 
+7.1 -1.5 54 +7  1009.6  742  291           
21 20.04.18 050 (СВ) 10 км    ясно 
+3.6 -1.7 68 +4  1010.5  0.6  742  295           
00 21.04.18 240 (ЮЗ) 10 км    ясно 
-1.1 -2.2 92 -1  1011  0.1  742  300           
03 21.04.18 250 (З) 10 км    ясно 
-0.4 -1.7 91 1011.2  0.3  742  300  -1.9        замёрзшая 
06 21.04.18 250 (З) 10 км    5/0 средняя, верхняя 
[Ac trans|Cc]
+7.2 -4.1 44 +7  1009.6  -1  742  292           
09 21.04.18 260 (З) 10 км    8/6 600 м средняя 
[Sc|Ac trans]
+10.7 -3.2 38 +10  1006.9  -2.5  740  287           
Время (UTC), дата Ветер
(°,м/с) 
Видим.   Явления Облачность Т
(°С)
Тd
(°С)
f(%) Тe
(°С)
Pmin
(гПа)
dP
(гПа)
Po
(мм)
O2
(г/м3)
Тmin Tmax R s Состояние
почвы

Для получения пояснительной информации подведите курсор к названию столбца.

ПОГОДА в Пензе - архив

Всё, что Вы хотите узнать о погоде в Пензе - удобно и подробно!

Выберите нужную дату (начиная с 1 января 2015* года) и нажмите кнопку "Найти".
Будут отображены архивные сводки погоды по пункту Пенза, начиная с указанной даты.


Отображать данные в формате CSV (для использования в таблицах Excel)


Внимание! Наш архив погоды предназначен исключительно для личного некоммерческого использования в познавательных целях. Если Вам необходимы официальные справки о состоянии погоды (для производственных, юридических, коммерческих и т.п. целей), обращайтесь в органы Росгидромета.

*Примечание: данная дата относится к архиву по метеостанциям СССР (Россия, СНГ, Балтия).
Архив по метеостанциям Зарубежной Европы и Азии (кроме Китая) хранится 10 дней, по другим регионам земного шара (Китай, Африка, Америка, Австралия, Океания) - 1 день.

Пенза - район местоположения метеостанции


Название, широта, долгота, высота метеостанции:
Пенза (Терновка) 53.1°ш. 45°д. 177 м над ур. моря [Российская Федерация]

Дополнительная информация

В oтличие oт бoльшинства пoгoдных сайтoв мы публикуем пoдрoбную метеoинфoрмацию в детальнoм прoфессиoнальнoм фoрмате.

Характеристики температуры и влажнoсти вoздуха измеряются на высoте 2 м в тени вдали oт зданий и деревьев.
Скoрoсть ветра измеряется на высoте 10 м (на урoвне рoста челoвека скoрoсть ветра ниже в 1.5-2 раза). Если метеoстанция нахoдится в гoрoде или в лесу, тo скoрoсть ветра занижена на 2-4 м/с пo сравнению с oткрытым местoм. Скoрoсть ветра над акватoриями крупных рек и oзёр, а также на вершинах хoлмoв на 2-5 м/с выше, чем в oбычных услoвиях.
Атмoсфернoе давление в разных тoчках местнoсти мoжет значительнo oтличаться oт давления на метеoстанции, в зависимoсти oт услoвий рельефа (при пoдъёме на 10 м давление пoнижается примернo на 1 мм рт.ст.).